GW0658 Weather Reports


Display with metric or nautical units.
time (UTC)temp
F
wind
direction
speed
MPH
gust
MPH
rain 1hr
in
rain 24hr
in
rain mn
in
humidity
%
barometer
mb
20260831231025 74 193 4.0 13.0 0.00 0.00 0.00 33 1016.2
20260831230525 75 352 3.0 12.0 0.00 0.00 0.00 34 1016.1
20260831230052 75 192 5.0 12.0 0.00 0.00 0.00 33 1016.1
20260831225523 75 207 5.0 9.0 0.00 0.00 0.00 34 1016.0
20260831225026 75 352 3.0 9.0 0.00 0.00 0.00 36 1016.2
20260831224610 75 209 3.0 8.0 0.00 0.00 0.00 37 1016.2
20260831224020 75 200 3.0 9.0 0.00 0.00 0.00 37 1016.3
20260831223528 75 218 2.0 9.0 0.00 0.00 0.00 37 1016.3
20260831223041 75 213 3.0 7.0 0.00 0.00 0.00 38 1016.2
20260831222524 75 198 3.0 8.0 0.00 0.00 0.00 38 1016.3
20260831222026 76 196 2.0 8.0 0.00 0.00 0.00 39 1016.3
20260831221549 76 176 3.0 8.0 0.00 0.00 0.00 38 1016.4
20260831221024 76 352 3.0 8.0 0.00 0.00 0.00 37 1016.4
20260831220524 76 352 3.0 9.0 0.00 0.00 0.00 37 1016.5
20260831220051 76 188 4.0 9.0 0.00 0.00 0.00 39 1016.5
20260831215523 75 232 3.0 11.0 0.00 0.00 0.00 39 1016.6
20260831215022 76 178 5.0 11.0 0.00 0.00 0.00 38 1016.6
20260831214546 76 221 4.0 9.0 0.00 0.00 0.00 40 1016.6
20260831214030 75 187 4.0 9.0 0.00 0.00 0.00 39 1016.6
20260831213525 75 247 3.0 9.0 0.00 0.00 0.00 40 1016.7
20260831213040 76 189 4.0 10.0 0.00 0.00 0.00 39 1016.6
20260831212526 76 200 4.0 10.0 0.00 0.00 0.00 38 1016.7
20260831212027 76 214 5.0 10.0 0.00 0.00 0.00 39 1016.8
20260831211602 76 192 2.0 8.0 0.00 0.00 0.00 38 1016.7
20260831211022 76 169 3.0 12.0 0.00 0.00 0.00 36 1016.6
20260831210521 76 140 4.0 12.0 0.00 0.00 0.00 37 1016.8
20260831210042 76 202 3.0 12.0 0.00 0.00 0.00 37 1016.7
20260831205525 76 199 5.0 12.0 0.00 0.00 0.00 37 1016.6
20260831205020 77 233 4.0 10.0 0.00 0.00 0.00 36 1016.6
20260831204542 77 229 3.0 10.0 0.00 0.00 0.00 36 1016.5
20260831204026 77 188 4.0 10.0 0.00 0.00 0.00 35 1016.6
20260831203524 77 225 4.0 13.0 0.00 0.00 0.00 34 1016.6
20260831203048 76 236 7.0 13.0 0.00 0.00 0.00 36 1016.6
20260831202523 77 178 4.0 11.0 0.00 0.00 0.00 35 1016.7
20260831202022 78 220 5.0 11.0 0.00 0.00 0.00 34 1016.8
20260831201541 78 173 3.0 12.0 0.00 0.00 0.00 34 1016.8
20260831201022 78 327 4.0 12.0 0.00 0.00 0.00 35 1016.9
20260831200519 78 207 5.0 12.0 0.00 0.00 0.00 34 1016.8
20260831200041 78 229 5.0 10.0 0.00 0.00 0.00 34 1016.8
20260831195524 77 211 4.0 10.0 0.00 0.00 0.00 34 1016.8
20260831195031 78 202 4.0 9.0 0.00 0.00 0.00 34 1016.8
20260831194557 77 109 3.0 9.0 0.00 0.00 0.00 34 1016.8
20260831194026 78 207 5.0 9.0 0.00 0.00 0.00 34 1016.8
20260831193522 78 202 3.0 9.0 0.00 0.00 0.00 33 1016.8
20260831193051 77 200 5.0 9.0 0.00 0.00 0.00 34 1016.8
20260831192521 77 225 4.0 9.0 0.00 0.00 0.00 35 1016.9
20260831192025 77 196 4.0 9.0 0.00 0.00 0.00 34 1017.0
20260831191548 77 198 4.0 10.0 0.00 0.00 0.00 34 1017.1
20260831191021 77 217 5.0 10.0 0.00 0.00 0.00 34 1017.2
20260831190520 77 239 3.0 8.0 0.00 0.00 0.00 35 1017.2
20260831190043 77 232 1.0 12.0 0.00 0.00 0.00 34 1017.2
20260831185525 76 5 3.0 12.0 0.00 0.00 0.00 34 1017.2
20260831185023 76 178 3.0 9.0 0.00 0.00 0.00 36 1017.3
20260831184545 77 192 3.0 9.0 0.00 0.00 0.00 35 1017.2
20260831184021 77 200 3.0 9.0 0.00 0.00 0.00 36 1017.3
20260831183523 76 202 4.0 9.0 0.00 0.00 0.00 37 1017.2
20260831183041 76 54 4.0 9.0 0.00 0.00 0.00 36 1017.2
20260831182521 76 225 2.0 8.0 0.00 0.00 0.00 36 1017.2
20260831182021 76 191 4.0 8.0 0.00 0.00 0.00 34 1017.2
20260831181540 76 201 4.0 8.0 0.00 0.00 0.00 37 1017.1
20260831181022 76 219 3.0 7.0 0.00 0.00 0.00 38 1017.1
20260831180531 75 198 1.0 7.0 0.00 0.00 0.00 38 1017.1
20260831180050 75 209 3.0 6.0 0.00 0.00 0.00 39 1017.2
20260831175524 75 205 2.0 7.0 0.00 0.00 0.00 38 1017.1
20260831175024 75 199 2.0 7.0 0.00 0.00 0.00 38 1017.1
20260831174545 75 233 3.0 6.0 0.00 0.00 0.00 38 1017.1
20260831174021 74 236 1.0 6.0 0.00 0.00 0.00 38 1017.1
20260831173520 74 200 3.0 6.0 0.00 0.00 0.00 41 1017.1
20260831173046 73 286 1.0 6.0 0.00 0.00 0.00 39 1017.0
20260831172521 73 205 3.0 6.0 0.00 0.00 0.00 40 1017.1
20260831172024 73 193 3.0 7.0 0.00 0.00 0.00 40 1017.0
20260831171540 73 188 2.0 8.0 0.00 0.00 0.00 41 1017.1
20260831171024 72 177 3.0 8.0 0.00 0.00 0.00 40 1017.1
20260831170524 73 187 3.0 7.0 0.00 0.00 0.00 40 1017.0
20260831170046 73 199 2.0 7.0 0.00 0.00 0.00 40 1016.9
20260831165523 73 195 2.0 6.0 0.00 0.00 0.00 39 1016.8
20260831165022 73 144 2.0 6.0 0.00 0.00 0.00 38 1016.8
20260831164546 72 200 2.0 5.0 0.00 0.00 0.00 39 1016.8
20260831164020 72 140 0.0 3.0 0.00 0.00 0.00 38 1016.7
20260831163524 71 192 1.0 4.0 0.00 0.00 0.00 39 1016.8
20260831163043 71 234 1.0 4.0 0.00 0.00 0.00 39 1016.7
20260831162527 70 194 0.0 4.0 0.00 0.00 0.00 39 1016.6
20260831162020 70 194 1.0 5.0 0.00 0.00 0.00 42 1016.7
20260831161550 69 231 1.0 5.0 0.00 0.00 0.00 44 1016.7
20260831161024 69 187 1.0 4.0 0.00 0.00 0.00 42 1016.7
20260831160523 68 0 1.0 4.0 0.00 0.00 0.00 44 1016.8
20260831160045 67 200 1.0 4.0 0.00 0.00 0.00 44 1016.7
20260831155520 67 213 0.0 2.0 0.00 0.00 0.00 47 1016.7
20260831155026 67 0 0.0 2.0 0.00 0.00 0.00 49 1016.8
20260831154621 66 0 0.0 4.0 0.00 0.00 0.00 49 1016.7
20260831154021 66 0 0.0 4.0 0.00 0.00 0.00 48 1016.8
20260831153526 65 0 0.0 3.0 0.00 0.00 0.00 50 1016.8
20260831153041 65 0 1.0 3.0 0.00 0.00 0.00 51 1016.7
20260831152521 64 0 0.0 2.0 0.00 0.00 0.00 51 1016.8
20260831152024 64 0 0.0 2.0 0.00 0.00 0.00 54 1016.8
20260831151552 63 76 0.0 2.0 0.00 0.00 0.00 54 1016.7
20260831151020 63 0 0.0 0.0 0.00 0.00 0.00 56 1016.6
20260831150521 63 0 0.0 0.0 0.00 0.00 0.00 55 1016.6
20260831150041 63 0 0.0 0.0 0.00 0.00 0.00 55 1016.6
20260831145524 63 0 0.0 0.0 0.00 0.00 0.00 55 1016.6
20260831145027 63 0 0.0 0.0 0.00 0.00 0.00 54 1016.6
20260831144547 63 0 0.0 3.0 0.00 0.00 0.00 54 1016.6
20260831144024 63 0 0.0 3.0 0.00 0.00 0.00 54 1016.5
20260831143523 63 0 0.0 3.0 0.00 0.00 0.00 53 1016.6
20260831143045 63 0 0.0 0.0 0.00 0.00 0.00 53 1016.6
20260831142520 63 0 0.0 0.0 0.00 0.00 0.00 52 1016.5
20260831142019 63 0 0.0 0.0 0.00 0.00 0.00 52 1016.5
20260831141541 63 0 0.0 0.0 0.00 0.00 0.00 52 1016.5
20260831141021 63 0 0.0 0.0 0.00 0.00 0.00 52 1016.5
20260831140524 63 0 0.0 0.0 0.00 0.00 0.00 51 1016.4
20260831140041 63 0 0.0 0.0 0.00 0.00 0.00 50 1016.5
20260831135526 63 0 0.0 0.0 0.00 0.00 0.00 50 1016.5
20260831135025 63 0 0.0 0.0 0.00 0.00 0.00 49 1016.4
20260831134550 63 0 0.0 2.0 0.00 0.00 0.00 49 1016.4
20260831134023 63 0 0.0 2.0 0.00 0.00 0.00 49 1016.3
20260831133523 63 68 1.0 2.0 0.00 0.00 0.00 49 1016.3
20260831133043 63 68 1.0 2.0 0.00 0.00 0.00 49 1016.3
20260831132525 63 68 1.0 2.0 0.00 0.00 0.00 49 1016.3
20260831132027 64 69 1.0 2.0 0.00 0.00 0.00 49 1016.1
20260831131544 63 0 1.0 2.0 0.00 0.00 0.00 49 1016.2
20260831131021 63 78 1.0 2.0 0.00 0.00 0.00 49 1016.1
20260831130522 63 67 1.0 2.0 0.00 0.00 0.00 50 1016.1
20260831130045 63 0 1.0 3.0 0.00 0.00 0.00 50 1016.1
20260831125525 63 67 1.0 3.0 0.00 0.00 0.00 50 1016.0
20260831125021 63 64 1.0 3.0 0.00 0.00 0.00 50 1016.1
20260831124548 63 59 1.0 3.0 0.00 0.00 0.00 50 1016.2
20260831124020 63 78 1.0 3.0 0.00 0.00 0.00 50 1016.2
20260831123522 63 63 1.0 3.0 0.00 0.00 0.00 50 1016.0
20260831123041 63 65 1.0 3.0 0.00 0.00 0.00 50 1016.1
20260831122527 63 60 1.0 3.0 0.00 0.00 0.00 50 1016.0
20260831122021 63 61 1.0 3.0 0.00 0.00 0.00 49 1016.0
20260831121550 63 61 1.0 3.0 0.00 0.00 0.00 49 1016.0
20260831121022 64 62 1.0 3.0 0.00 0.00 0.00 49 1016.0
20260831120523 64 68 1.0 3.0 0.00 0.00 0.00 48 1015.9
20260831120043 64 0 0.0 0.0 0.00 0.00 0.00 48 1016.0
20260831115524 64 0 0.0 0.0 0.00 0.00 0.00 48 1016.1
20260831115022 64 0 0.0 0.0 0.00 0.00 0.00 48 1016.0
20260831114542 64 0 0.0 0.0 0.00 0.00 0.00 48 1016.1
20260831114025 64 0 0.0 0.0 0.00 0.00 0.00 48 1016.2
20260831113524 64 0 0.0 0.0 0.00 0.00 0.00 48 1016.2
20260831113050 64 0 0.0 0.0 0.00 0.00 0.00 48 1016.2
20260831112523 64 0 0.0 0.0 0.00 0.00 0.00 48 1016.2
20260831112022 64 0 0.0 0.0 0.00 0.00 0.00 49 1016.2
20260831111541 64 0 0.0 0.0 0.00 0.00 0.00 49 1016.2
20260831111027 64 0 0.0 0.0 0.00 0.00 0.00 49 1016.2
20260831110523 64 0 0.0 0.0 0.00 0.00 0.00 49 1016.2
20260831110041 64 0 0.0 0.0 0.00 0.00 0.00 49 1016.2
20260831105524 64 0 0.0 0.0 0.00 0.00 0.00 49 1016.1
20260831105023 64 0 0.0 0.0 0.00 0.00 0.00 49 1016.2
20260831104546 64 0 0.0 0.0 0.00 0.00 0.00 49 1016.2
20260831104022 64 0 0.0 0.0 0.00 0.00 0.00 49 1016.1
20260831103521 64 0 0.0 0.0 0.00 0.00 0.00 49 1016.1
20260831103046 65 0 0.0 0.0 0.00 0.00 0.00 49 1016.2
20260831102520 65 0 0.0 0.0 0.00 0.00 0.00 49 1016.2
20260831102020 64 0 0.0 0.0 0.00 0.00 0.00 49 1016.2
20260831101541 64 0 0.0 0.0 0.00 0.00 0.00 49 1016.3
20260831101024 64 0 0.0 0.0 0.00 0.00 0.00 49 1016.2
20260831100522 64 0 0.0 0.0 0.00 0.00 0.00 49 1016.2
20260831095523 64 0 0.0 0.0 0.00 0.00 0.00 50 1016.1
20260831095028 64 0 0.0 0.0 0.00 0.00 0.00 50 1016.2
20260831094541 64 0 0.0 0.0 0.00 0.00 0.00 50 1016.2
20260831094019 64 0 0.0 0.0 0.00 0.00 0.00 50 1016.2
20260831093520 64 0 0.0 0.0 0.00 0.00 0.00 50 1016.2
20260831093049 64 0 0.0 0.0 0.00 0.00 0.00 50 1016.2
20260831092522 64 0 0.0 2.0 0.00 0.00 0.00 50 1016.1
20260831092026 64 0 0.0 2.0 0.00 0.00 0.00 50 1016.2
20260831091544 64 0 0.0 0.0 0.00 0.00 0.00 50 1016.2
20260831091022 65 0 0.0 0.0 0.00 0.00 0.00 50 1016.2
20260831090525 65 0 0.0 0.0 0.00 0.00 0.00 50 1016.2
20260831090043 65 0 0.0 2.0 0.00 0.00 0.00 50 1016.2
20260831085523 64 0 0.0 3.0 0.00 0.00 0.00 50 1016.3
20260831085028 64 0 1.0 3.0 0.00 0.00 0.00 50 1016.4
20260831084547 64 60 0.0 3.0 0.00 0.00 0.00 51 1016.3
20260831084020 64 68 1.0 3.0 0.00 0.00 0.00 51 1016.3
20260831083519 64 73 1.0 3.0 0.00 0.00 0.00 51 1016.4
20260831083045 64 68 2.0 3.0 0.00 0.00 0.00 51 1016.4
20260831082525 64 67 2.0 3.0 0.00 0.00 0.00 51 1016.5
20260831082024 64 63 1.0 3.0 0.00 0.00 0.00 51 1016.6
20260831081541 64 70 1.0 3.0 0.00 0.00 0.00 51 1016.6
20260831081019 64 70 0.0 2.0 0.00 0.00 0.00 51 1016.6
20260831080521 64 0 0.0 0.0 0.00 0.00 0.00 52 1016.6
20260831080042 64 0 0.0 0.0 0.00 0.00 0.00 52 1016.6
20260831075519 64 0 0.0 0.0 0.00 0.00 0.00 52 1016.7
20260831075026 64 0 0.0 0.0 0.00 0.00 0.00 52 1016.8
20260831074542 64 0 0.0 0.0 0.00 0.00 0.00 52 1016.8
20260831074026 64 0 0.0 0.0 0.00 0.00 0.00 52 1016.8
20260831073524 64 0 0.0 0.0 0.00 0.00 0.00 52 1016.7
20260831073048 64 0 0.0 2.0 0.00 0.00 0.00 53 1016.7
20260831072523 64 0 0.0 2.0 0.00 0.00 0.00 53 1016.7
20260831072021 64 55 1.0 2.0 0.00 0.00 0.00 53 1016.6
20260831071603 64 55 1.0 2.0 0.00 0.00 0.00 53 1016.7
20260831071020 64 55 1.0 2.0 0.00 0.00 0.00 53 1016.7
20260831070526 64 0 0.0 0.0 0.00 0.00 0.00 53 1016.7
20260831070043 64 0 0.0 0.0 0.00 0.00 0.00 52 1016.7
20260831065521 64 0 0.0 0.0 0.00 0.00 0.00 52 1016.7
20260831065025 65 0 0.0 0.0 0.00 0.00 0.00 52 1016.7
20260831064547 65 0 0.0 1.0 0.00 0.00 0.00 52 1016.7
20260831064026 65 0 0.0 1.0 0.00 0.00 0.00 52 1016.7
20260831063522 65 55 0.0 2.0 0.00 0.00 0.00 52 1016.6
20260831063042 65 0 0.0 2.0 0.00 0.00 0.00 52 1016.6
20260831062527 65 55 1.0 2.0 0.00 0.00 0.00 53 1016.6
20260831062019 64 55 1.0 2.0 0.00 0.00 0.00 53 1016.7
20260831061543 64 55 1.0 2.0 0.00 0.00 0.00 53 1016.7
20260831061022 64 54 1.0 2.0 0.00 0.00 0.00 53 1016.7
20260831060526 64 51 0.0 2.0 0.00 0.00 0.00 53 1016.7
20260831060046 64 51 0.0 3.0 0.00 0.00 0.00 53 1016.8
20260831055530 64 0 1.0 3.0 0.00 0.00 0.00 53 1016.8
20260831055023 64 57 0.0 2.0 0.00 0.00 0.00 53 1016.9
20260831054546 64 0 0.0 0.0 0.00 0.00 0.00 53 1017.0
20260831054025 64 0 0.0 0.0 0.00 0.00 0.00 53 1016.9
20260831053522 64 0 0.0 0.0 0.00 0.00 0.00 53 1016.9
20260831053049 64 0 0.0 0.0 0.00 0.00 0.00 52 1016.8
20260831052525 65 0 0.0 0.0 0.00 0.00 0.00 52 1017.0
20260831052025 65 0 0.0 0.0 0.00 0.00 0.00 52 1017.0
20260831051547 65 0 0.0 0.0 0.00 0.00 0.00 52 1017.1
20260831051024 65 0 0.0 0.0 0.00 0.00 0.00 52 1017.0
20260831050523 65 0 0.0 0.0 0.00 0.00 0.00 52 1017.1
20260831050046 65 0 0.0 0.0 0.00 0.00 0.00 52 1017.2
20260831045522 65 0 0.0 0.0 0.00 0.00 0.00 52 1017.1
20260831045021 65 0 0.0 0.0 0.00 0.00 0.00 52 1017.1
20260831044547 65 0 0.0 0.0 0.00 0.00 0.00 52 1017.1
20260831044025 65 0 0.0 0.0 0.00 0.00 0.00 52 1017.1
20260831043523 65 0 0.0 2.0 0.00 0.00 0.00 52 1017.1
20260831043053 65 0 0.0 3.0 0.00 0.00 0.00 51 1017.1
20260831042524 65 56 1.0 3.0 0.00 0.00 0.00 51 1017.1
20260831042024 65 49 1.0 3.0 0.00 0.00 0.00 51 1017.1
20260831041547 65 57 1.0 3.0 0.00 0.00 0.00 51 1017.0
20260831041028 65 0 0.0 3.0 0.00 0.00 0.00 51 1017.0
20260831040523 65 0 1.0 3.0 0.00 0.00 0.00 51 1017.0
20260831040044 65 69 1.0 3.0 0.00 0.00 0.00 51 1016.9
20260831035524 65 70 2.0 3.0 0.00 0.00 0.00 51 1016.8
20260831035024 65 0 0.0 0.0 0.00 0.00 0.00 50 1016.9
20260831034552 65 0 0.0 0.0 0.00 0.00 0.00 50 1017.0
20260831034025 65 0 0.0 0.0 0.00 0.00 0.00 49 1017.0
20260831033525 65 0 0.0 0.0 0.00 0.00 0.00 49 1016.9
20260831033052 65 0 0.0 0.0 0.00 0.00 0.00 49 1016.9
20260831032524 65 0 0.0 0.0 0.00 0.00 0.00 49 1016.9
20260831032026 65 0 0.0 0.0 0.00 0.00 0.00 49 1016.8
20260831031541 66 0 0.0 0.0 0.00 0.00 0.00 49 1016.8
20260831031030 66 0 0.0 0.0 0.00 0.00 0.00 49 1016.9
20260831030524 66 0 0.0 0.0 0.00 0.00 0.00 49 1016.8
20260831030053 67 0 0.0 0.0 0.00 0.00 0.00 49 1016.8
20260831025525 67 0 0.0 0.0 0.00 0.00 0.00 49 1016.8
20260831025025 67 0 0.0 1.0 0.00 0.00 0.00 48 1016.8
20260831024554 68 0 0.0 2.0 0.00 0.00 0.00 48 1016.8
20260831024028 68 225 1.0 2.0 0.00 0.00 0.00 48 1016.7
20260831023524 68 225 0.0 2.0 0.00 0.00 0.00 48 1016.8
20260831023044 69 0 0.0 0.0 0.00 0.00 0.00 47 1016.8
20260831022521 69 0 0.0 0.0 0.00 0.00 0.00 47 1016.8
20260831022024 70 0 0.0 0.0 0.00 0.00 0.00 46 1016.8
20260831021542 70 0 0.0 0.0 0.00 0.00 0.00 46 1016.8
20260831021031 71 0 0.0 3.0 0.00 0.00 0.00 46 1016.8
20260831020525 71 0 1.0 3.0 0.00 0.00 0.00 44 1016.8
20260831015526 71 225 0.0 4.0 0.00 0.00 0.00 43 1016.8
20260831015022 72 225 2.0 4.0 0.00 0.00 0.00 43 1016.8
20260831014545 72 215 2.0 4.0 0.00 0.00 0.00 43 1016.8
20260831014019 72 243 1.0 5.0 0.00 0.00 0.00 43 1016.7
20260831013524 72 241 2.0 5.0 0.00 0.00 0.00 42 1016.8
20260831013052 72 224 2.0 5.0 0.00 0.00 0.00 42 1016.8
20260831012524 73 215 2.0 5.0 0.00 0.00 0.00 42 1016.8
20260831012026 73 197 2.0 4.0 0.00 0.00 0.00 42 1017.0
20260831011604 73 238 2.0 6.0 0.00 0.00 0.00 41 1017.0
20260831011024 74 240 1.0 6.0 0.00 0.00 0.00 42 1016.9
20260831010525 74 219 2.0 6.0 0.00 0.00 0.00 42 1017.1
20260831010047 74 202 2.0 6.0 0.00 0.00 0.00 41 1017.0
20260831005521 74 246 2.0 5.0 0.00 0.00 0.00 41 1017.0
20260831005026 74 241 3.0 7.0 0.00 0.00 0.00 41 1016.9
20260831004548 74 210 2.0 8.0 0.00 0.00 0.00 41 1017.0
20260831004026 74 263 4.0 8.0 0.00 0.00 0.00 40 1016.9
20260831003526 75 265 2.0 5.0 0.00 0.00 0.00 39 1016.9
20260831003051 75 0 2.0 9.0 0.00 0.00 0.00 39 1016.9
20260831002526 75 227 4.0 9.0 0.00 0.00 0.00 40 1017.0
20260831002026 75 207 2.0 7.0 0.00 0.00 0.00 39 1017.0
20260831001549 75 226 3.0 6.0 0.00 0.00 0.00 40 1017.0
20260831001024 75 227 1.0 6.0 0.00 0.00 0.00 40 1017.0
20260831000525 75 194 2.0 7.0 0.00 0.00 0.00 39 1017.1
20260831000046 75 299 2.0 7.0 0.00 0.00 0.00 40 1017.1
20260830235524 75 250 3.0 7.0 0.00 0.00 0.00 40 1017.0
20260830235027 75 185 4.0 7.0 0.00 0.00 0.00 39 1017.1
20260830234606 75 193 2.0 7.0 0.00 0.00 0.00 39 1017.0
20260830234024 75 192 3.0 9.0 0.00 0.00 0.00 40 1017.1
20260830233525 75 231 5.0 9.0 0.00 0.00 0.00 39 1017.1
20260830233048 76 246 2.0 9.0 0.00 0.00 0.00 40 1017.1
20260830232526 75 201 2.0 9.0 0.00 0.00 0.00 39 1017.1
20260830232027 76 244 5.0 13.0 0.00 0.00 0.00 38 1017.0
20260830231556 77 234 5.0 13.0 0.00 0.00 0.00 38 1017.1